Regional Weather Roundup
Issued by NWS Glasgow, MT

Home | Current Version | Previous Version | Text Only | Print | Product List | Glossary On
Versions: 1 2 3 4 5 6 7 8 9 10 11 12 13 14 15 16 17 18 19 20 21 22 23 24 25 26 27 28 29 30 31 32 33 34 35 36 37 38 39 40 41 42 43 44 45 46 47 48 49
000
ASUS45 KGGW 021715
RWRGGW
HOURLY REGIONAL WEATHER ROUNDUP FOR NORTHEAST MONTANA
NATIONAL WEATHER SERVICE GLASGOW MONTANA
1100 AM MDT TUE JUN 02 2015

NOTE: "FAIR" INDICATES FEW OR NO CLOUDS BELOW 12,000 FEET WITH NO
SIGNIFICANT WEATHER AND/OR OBSTRUCTIONS TO VISISBILITY.

NORTHEAST MONTANA


CITY           SKY/WX    TMP DP  RH WIND       PRES   REMARKS
GLASGOW        LGT RAIN  56  50  80 N7        29.88S
PLENTYWOOD       N/A     58  49  72 NE21G30     N/A
WOLF POINT     LGT RAIN  56  51  84 N8        29.85R
JORDAN           N/A     58  53  84 N14       29.88R
WINNETT          N/A     55  52  89 E8          N/A
SIDNEY         CLOUDY    63  61  94 S7        29.76F
GLENDIVE       CLOUDY    57  54  88 W12G18    29.82R
MALTA            N/A     54  50  86 NE3         N/A
SCOBEY           N/A     58  42  55 N17G24    29.88S
OPHEIM           N/A     55  41  58 N15       29.73S

FORT PECK REPORTS


CITY           SKY/WX    TMP DP  RH WIND       PRES   REMARKS
FORT PECK        N/A     53  53 100 N12         N/A
THE PINES        N/A     54  51  90 N10G20      N/A

SOUTHEAST MONTANA


CITY           SKY/WX    TMP DP  RH WIND       PRES   REMARKS
BILLINGS       MOSUNNY   67  53  61 VRB3      29.91S
MILES CITY     CLOUDY    59  55  87 NW10      29.85S
BAKER          PTSUNNY   66  56  70 SW16G24   29.84S
LIVINGSTON     MOSUNNY   65  46  50 W8        29.93S

CENTRAL MONTANA


CITY           SKY/WX    TMP DP  RH WIND       PRES   REMARKS
HAVRE          CLOUDY    57  49  74 E16       29.92S
LEWISTOWN      PTSUNNY   59  51  75 E14       29.93S
GREAT FALLS    LGT RAIN  59  51  75 S10       29.89S
CUT BANK       CLOUDY    49  46  90 E20G26    29.92F
HELENA         TSTM      59  51  75 SE8G18    29.93S
BUTTE          CLOUDY    57  45  64 CALM      29.99F
BOZEMAN        PTSUNNY   63  50  62 NW3       29.96F

WESTERN MONTANA


CITY           SKY/WX    TMP DP  RH WIND       PRES   REMARKS
MISSOULA       LGT RAIN  56  52  86 NW5       29.95S
KALISPELL      NOT AVBL

NORTH DAKOTA


CITY           SKY/WX    TMP DP  RH WIND       PRES   REMARKS
WILLISTON      HVY RAIN  58  56  93 NE9       29.82F FOG
DICKINSON      PTSUNNY   69  57  65 CALM      29.78F
MINOT          CLOUDY    65  60  84 NE10      29.80S
BISMARCK       CLOUDY    72  63  73 W3        29.76F

SOUTHERN SASKATCHEWAN


CITY           SKY/WX    TMP DP  RH WIND       PRES   REMARKS
REGINA         CLOUDY    63  46  55 NE13G21   29.94F
MOOSE JAW      CLOUDY    61  46  59 NE13      29.96S
ESTEVAN        LGT RAIN  59  50  72 NE16      29.87S
SWIFT CURRENT  SUNNY     55  46  71 E14G20    29.96F




USA.gov is the U.S. government's official web portal to all federal, state and local government web resources and services.